SBI7520 ZWWW-UTAA

Flight info

Callsign SBI7520
Flight time 3h 46m
Altitude 36000
Route ZWWW N0448F360 NIXE4L NIXER MENOD W119 LIMDO A468 KAMUD L141 TADOT MALEX ZEZAM MANAT B376 LBA A117 DUTAR URABA URA11A UGMUR CI11R FI11R RW11R UTAA
Aircraft B738/M-SDGIWZ/S

Departure

Time 2026-05-01 09:20
Airport Ürümqi Tianshan International Airport (ZWWW)

Arrival

Time 2026-05-01 13:07
Airport Ashgabat International Airport (UTAA)
Time Latitude Longitude Altitude Speed Heading
2026-05-01 09:03 43.89738 87.46400 2134 ft 0 kts 179°
2026-05-01 09:15 43.89740 87.46400 2134 ft 0 kts 179°
2026-05-01 09:15 43.89755 87.46399 2134 ft 6 kts 179°
2026-05-01 09:16 43.89787 87.46429 2134 ft 3 kts 263°
2026-05-01 09:16 43.89785 87.46410 2134 ft 8 kts 264°
2026-05-01 09:16 43.89784 87.46278 2134 ft 19 kts 269°
2026-05-01 09:17 43.89861 87.45991 2134 ft 13 kts 344°
2026-05-01 09:17 43.89948 87.45955 2134 ft 13 kts 343°
2026-05-01 09:17 43.90132 87.45877 2134 ft 14 kts 343°
2026-05-01 09:18 43.90191 87.45801 2134 ft 12 kts 260°
2026-05-01 09:18 43.90133 87.45527 2134 ft 17 kts 253°
2026-05-01 09:19 43.90194 87.45310 2134 ft 12 kts 344°
2026-05-01 09:19 43.90265 87.45333 2134 ft 12 kts 59°
2026-05-01 09:19 43.90335 87.45631 2134 ft 64 kts 73°
2026-05-01 09:20 43.90822 87.47930 2157 ft 175 kts 71°
2026-05-01 09:20 43.91638 87.51513 3065 ft 203 kts 68°
2026-05-01 09:21 43.93593 87.54478 4064 ft 228 kts 40°
2026-05-01 09:21 43.94550 87.56287 4439 ft 247 kts 66°
2026-05-01 09:21 43.95356 87.60939 6015 ft 252 kts 82°
2026-05-01 09:22 43.95715 87.65776 7484 ft 259 kts 82°
2026-05-01 09:22 43.95661 87.70869 8838 ft 270 kts 108°
2026-05-01 09:23 43.94696 87.73109 9379 ft 280 kts 135°
2026-05-01 09:23 43.91248 87.75427 10684 ft 283 kts 174°
2026-05-01 09:24 43.87459 87.74551 11883 ft 281 kts 216°
2026-05-01 09:24 43.85986 87.72761 12206 ft 291 kts 233°
2026-05-01 09:24 43.84366 87.67364 12467 ft 325 kts 256°
2026-05-01 09:25 43.83019 87.61017 12922 ft 353 kts 255°
2026-05-01 09:25 43.81605 87.54417 13929 ft 361 kts 255°
2026-05-01 09:26 43.80895 87.51086 14412 ft 364 kts 256°
2026-05-01 09:26 43.79927 87.44200 15424 ft 366 kts 267°
2026-05-01 09:26 43.79793 87.40670 15923 ft 368 kts 269°
2026-05-01 09:27 43.79546 87.33554 16822 ft 373 kts 268°
2026-05-01 09:27 43.79429 87.29990 17267 ft 375 kts 268°
2026-05-01 09:27 43.79317 87.26401 17688 ft 377 kts 269°
2026-05-01 09:28 43.79204 87.22772 18113 ft 379 kts 269°
2026-05-01 09:28 43.79091 87.19139 18513 ft 381 kts 269°
2026-05-01 09:28 43.78977 87.15472 18906 ft 383 kts 269°
2026-05-01 09:28 43.78862 87.11810 19289 ft 384 kts 269°
2026-05-01 09:29 43.78546 87.04351 19991 ft 390 kts 264°
2026-05-01 09:29 43.78046 87.00674 20341 ft 392 kts 258°
2026-05-01 09:30 43.76757 86.93342 20976 ft 397 kts 258°
2026-05-01 09:30 43.76117 86.89603 21317 ft 398 kts 258°
2026-05-01 09:30 43.74807 86.82171 21928 ft 402 kts 257°
2026-05-01 09:31 43.74138 86.78426 22243 ft 403 kts 257°
2026-05-01 09:31 43.73461 86.74654 22523 ft 405 kts 257°
2026-05-01 09:31 43.72092 86.67072 23088 ft 408 kts 257°
2026-05-01 09:32 43.71400 86.63254 23358 ft 409 kts 257°
2026-05-01 09:32 43.70010 86.55632 23885 ft 412 kts 257°
2026-05-01 09:32 43.69306 86.51786 24098 ft 414 kts 257°
2026-05-01 09:33 43.68605 86.47969 24397 ft 414 kts 257°
2026-05-01 09:33 43.67891 86.44084 24640 ft 415 kts 257°
2026-05-01 09:33 43.66470 86.36384 25114 ft 417 kts 257°
2026-05-01 09:34 43.65750 86.32492 25334 ft 419 kts 257°
2026-05-01 09:34 43.65028 86.28596 25550 ft 420 kts 257°
2026-05-01 09:34 43.63572 86.20776 25955 ft 423 kts 257°
2026-05-01 09:35 43.62841 86.16857 26189 ft 423 kts 257°
2026-05-01 09:35 43.61779 86.08883 26554 ft 424 kts 267°
2026-05-01 09:35 43.61748 86.04841 26747 ft 424 kts 275°
2026-05-01 09:36 43.62099 86.00842 26925 ft 424 kts 279°
2026-05-01 09:36 43.62558 85.96790 27118 ft 425 kts 279°
2026-05-01 09:36 43.62977 85.92777 27304 ft 426 kts 278°
2026-05-01 09:36 43.63379 85.88740 27466 ft 427 kts 278°
2026-05-01 09:37 43.63793 85.84696 27594 ft 429 kts 279°
2026-05-01 09:37 43.64491 85.76511 27971 ft 429 kts 276°
2026-05-01 09:37 43.64787 85.72416 28087 ft 431 kts 277°
2026-05-01 09:38 43.65432 85.64198 28355 ft 433 kts 277°
2026-05-01 09:38 43.65766 85.60081 28517 ft 434 kts 277°
2026-05-01 09:38 43.66092 85.55930 28670 ft 434 kts 277°
2026-05-01 09:39 43.66713 85.47659 28912 ft 436 kts 277°
2026-05-01 09:39 43.67022 85.43475 29083 ft 435 kts 277°
2026-05-01 09:39 43.67331 85.39336 29203 ft 436 kts 277°
2026-05-01 09:40 43.67639 85.35195 29327 ft 437 kts 277°
2026-05-01 09:40 43.68283 85.26850 29513 ft 439 kts 277°
2026-05-01 09:40 43.68613 85.22637 29662 ft 439 kts 277°
2026-05-01 09:41 43.68890 85.18457 29725 ft 441 kts 272°
2026-05-01 09:41 43.68173 85.10046 30118 ft 441 kts 257°
2026-05-01 09:41 43.67172 85.06066 30417 ft 440 kts 248°
2026-05-01 09:42 43.65698 85.02408 30565 ft 443 kts 240°
2026-05-01 09:42 43.63976 84.98860 30814 ft 440 kts 240°
2026-05-01 09:42 43.60683 84.91813 31020 ft 441 kts 241°
2026-05-01 09:43 43.57368 84.84676 31277 ft 441 kts 241°
2026-05-01 09:43 43.55711 84.81142 31388 ft 441 kts 241°
2026-05-01 09:43 43.54039 84.77586 31462 ft 443 kts 241°
2026-05-01 09:44 43.50702 84.70491 31652 ft 443 kts 241°
2026-05-01 09:44 43.49037 84.66943 31796 ft 442 kts 241°
2026-05-01 09:44 43.47372 84.63399 32014 ft 440 kts 241°
2026-05-01 09:45 43.45713 84.59879 32192 ft 438 kts 241°
2026-05-01 09:45 43.42399 84.52902 32367 ft 439 kts 241°
2026-05-01 09:45 43.40714 84.49376 32445 ft 440 kts 241°
2026-05-01 09:46 43.39051 84.45882 32588 ft 439 kts 241°
2026-05-01 09:46 43.37376 84.42350 32698 ft 439 kts 241°
2026-05-01 09:46 43.34058 84.35371 32913 ft 439 kts 241°
2026-05-01 09:47 43.30697 84.28352 33080 ft 440 kts 240°
2026-05-01 09:47 43.27347 84.21388 33282 ft 440 kts 240°
2026-05-01 09:48 43.25678 84.17911 33442 ft 438 kts 241°
2026-05-01 09:48 43.23999 84.14386 33506 ft 439 kts 241°
2026-05-01 09:48 43.20658 84.07407 33655 ft 440 kts 241°
2026-05-01 09:49 43.17291 84.00468 33842 ft 440 kts 240°
2026-05-01 09:49 43.13916 83.93508 34026 ft 440 kts 241°
2026-05-01 09:50 43.12232 83.90018 34136 ft 439 kts 241°
2026-05-01 09:50 43.10534 83.86505 34236 ft 439 kts 241°
2026-05-01 09:50 43.08861 83.83061 34364 ft 438 kts 241°
2026-05-01 09:50 43.07176 83.79606 34432 ft 438 kts 241°
2026-05-01 09:51 43.03792 83.72677 34619 ft 438 kts 241°
2026-05-01 09:51 43.00437 83.65816 34775 ft 438 kts 241°
2026-05-01 09:52 42.97048 83.58884 34933 ft 438 kts 241°
2026-05-01 09:52 42.93675 83.52021 35078 ft 438 kts 240°
2026-05-01 09:53 42.91982 83.48563 35190 ft 437 kts 240°
2026-05-01 09:53 42.90308 83.45133 35271 ft 437 kts 240°
2026-05-01 09:53 42.86951 83.38294 35412 ft 436 kts 240°
2026-05-01 09:54 42.83553 83.31442 35555 ft 436 kts 239°
2026-05-01 09:54 42.80159 83.24621 35707 ft 435 kts 239°
2026-05-01 09:55 42.76793 83.17863 35851 ft 435 kts 240°
2026-05-01 09:55 42.73417 83.11018 36044 ft 433 kts 240°
2026-05-01 09:56 42.70067 83.04223 36045 ft 435 kts 240°
2026-05-01 09:56 42.66680 82.97426 36047 ft 436 kts 240°
2026-05-01 09:57 42.63282 82.90611 36047 ft 436 kts 240°
2026-05-01 09:57 42.59900 82.83842 36047 ft 436 kts 240°
2026-05-01 09:58 42.56485 82.77057 36033 ft 437 kts 240°
2026-05-01 09:58 42.53075 82.70287 35989 ft 436 kts 240°
2026-05-01 09:59 42.49653 82.63543 35941 ft 437 kts 240°
2026-05-01 09:59 42.46191 82.56780 35897 ft 437 kts 240°
2026-05-01 10:00 42.42753 82.50017 35887 ft 437 kts 240°
2026-05-01 10:00 42.39333 82.43251 35884 ft 437 kts 240°
2026-05-01 10:01 42.35927 82.36533 35885 ft 436 kts 240°
2026-05-01 10:01 42.32458 82.29813 35886 ft 438 kts 239°
2026-05-01 10:02 42.28991 82.23102 35885 ft 438 kts 239°
2026-05-01 10:02 42.25507 82.16335 35885 ft 437 kts 239°
2026-05-01 10:03 42.22058 82.09655 35885 ft 437 kts 239°
2026-05-01 10:03 42.18579 82.02917 35885 ft 437 kts 239°
2026-05-01 10:04 42.15135 81.96246 35886 ft 438 kts 240°
2026-05-01 10:04 42.11663 81.89484 35884 ft 437 kts 240°
2026-05-01 10:05 42.08229 81.82804 35885 ft 435 kts 240°
2026-05-01 10:05 42.04787 81.76136 35885 ft 437 kts 239°
2026-05-01 10:06 42.01299 81.69506 35885 ft 437 kts 239°
2026-05-01 10:06 41.97783 81.62812 35885 ft 437 kts 240°
2026-05-01 10:07 41.94318 81.56144 35885 ft 437 kts 240°
2026-05-01 10:07 41.90831 81.49493 35884 ft 437 kts 239°
2026-05-01 10:08 41.85577 81.39555 35885 ft 437 kts 240°
2026-05-01 10:09 41.82081 81.32886 35885 ft 437 kts 239°
2026-05-01 10:09 41.78592 81.26248 35882 ft 437 kts 239°
2026-05-01 10:10 41.75059 81.19627 35886 ft 437 kts 239°
2026-05-01 10:10 41.69758 81.09736 35886 ft 436 kts 239°
2026-05-01 10:11 41.66380 81.03120 35889 ft 427 kts 246°
2026-05-01 10:11 41.64379 80.95800 35908 ft 420 kts 260°
2026-05-01 10:12 41.63924 80.89363 35921 ft 417 kts 271°
2026-05-01 10:13 41.63625 80.76457 35932 ft 418 kts 269°
2026-05-01 10:13 41.63375 80.68738 35936 ft 417 kts 269°
2026-05-01 10:14 41.63021 80.57105 35939 ft 417 kts 269°
2026-05-01 10:14 41.62777 80.49383 35940 ft 418 kts 270°
2026-05-01 10:15 41.62537 80.41662 35938 ft 417 kts 269°
2026-05-01 10:15 41.62293 80.33938 35940 ft 417 kts 269°
2026-05-01 10:16 41.62039 80.26188 35939 ft 418 kts 269°
2026-05-01 10:17 41.61728 80.14580 35939 ft 418 kts 270°
2026-05-01 10:17 41.61396 80.02975 35999 ft 418 kts 269°
2026-05-01 10:18 41.60942 79.91344 36062 ft 418 kts 269°
2026-05-01 10:19 41.60701 79.83588 36068 ft 418 kts 269°
2026-05-01 10:19 41.60458 79.75897 36070 ft 417 kts 269°
2026-05-01 10:20 41.60074 79.64302 36074 ft 418 kts 269°
2026-05-01 10:20 41.59740 79.56560 36074 ft 418 kts 268°
2026-05-01 10:21 41.59214 79.45007 36076 ft 417 kts 269°
2026-05-01 10:22 41.58742 79.33411 36073 ft 416 kts 269°
2026-05-01 10:23 41.58351 79.21857 36074 ft 418 kts 269°
2026-05-01 10:23 41.57903 79.10316 36129 ft 415 kts 268°
2026-05-01 10:24 41.57246 78.94894 36126 ft 414 kts 268°
2026-05-01 10:25 41.56599 78.79653 36128 ft 413 kts 268°
2026-05-01 10:26 41.56355 78.71968 36129 ft 415 kts 269°
2026-05-01 10:27 41.55884 78.56615 36128 ft 414 kts 268°
2026-05-01 10:28 41.55503 78.45098 36129 ft 414 kts 268°
2026-05-01 10:28 41.55069 78.33585 36129 ft 415 kts 267°
2026-05-01 10:29 41.54571 78.22115 36126 ft 413 kts 268°
2026-05-01 10:30 41.54014 78.06788 36128 ft 414 kts 267°
2026-05-01 10:31 41.53467 77.91438 36127 ft 415 kts 268°
2026-05-01 10:32 41.52968 77.79947 36129 ft 414 kts 268°
2026-05-01 10:33 41.52422 77.64647 36128 ft 413 kts 268°
2026-05-01 10:34 41.51928 77.53169 36128 ft 414 kts 267°
2026-05-01 10:34 41.51563 77.45528 36128 ft 414 kts 268°
2026-05-01 10:35 41.51029 77.34039 36129 ft 415 kts 267°
2026-05-01 10:35 41.50660 77.26397 36128 ft 414 kts 267°
2026-05-01 10:36 41.50130 77.14909 36129 ft 415 kts 267°
2026-05-01 10:37 41.49769 77.07273 36127 ft 413 kts 267°
2026-05-01 10:37 41.49234 76.95817 36128 ft 412 kts 267°
2026-05-01 10:38 41.48874 76.88242 36127 ft 413 kts 266°
2026-05-01 10:38 41.48506 76.80598 36128 ft 411 kts 266°
2026-05-01 10:39 41.48138 76.73022 36128 ft 411 kts 266°
2026-05-01 10:39 41.47762 76.65456 36128 ft 413 kts 266°
2026-05-01 10:40 41.47382 76.57819 36127 ft 413 kts 266°
2026-05-01 10:40 41.46995 76.50170 36127 ft 412 kts 266°
2026-05-01 10:41 41.46600 76.42593 36127 ft 412 kts 266°
2026-05-01 10:42 41.46007 76.31168 36127 ft 412 kts 266°
2026-05-01 10:42 41.45599 76.23599 36128 ft 412 kts 265°
2026-05-01 10:43 41.45187 76.16021 36127 ft 411 kts 266°
2026-05-01 10:43 41.44811 76.08391 36129 ft 413 kts 266°
2026-05-01 10:44 41.44436 76.00807 36126 ft 412 kts 266°
2026-05-01 10:44 41.44027 75.93205 36128 ft 411 kts 266°
2026-05-01 10:45 41.43604 75.85626 36127 ft 412 kts 266°
2026-05-01 10:45 41.43168 75.77988 36127 ft 411 kts 266°
2026-05-01 10:46 41.42721 75.70432 36129 ft 412 kts 266°
2026-05-01 10:46 41.42281 75.62820 36128 ft 413 kts 266°
2026-05-01 10:47 41.41811 75.55244 36125 ft 411 kts 265°
2026-05-01 10:47 41.41317 75.47637 36118 ft 413 kts 265°
2026-05-01 10:48 41.40839 75.40058 36107 ft 412 kts 265°
2026-05-01 10:48 41.40353 75.32499 36084 ft 411 kts 265°
2026-05-01 10:49 41.39880 75.24921 36041 ft 413 kts 265°
2026-05-01 10:49 41.39402 75.17285 35999 ft 412 kts 265°
2026-05-01 10:50 41.38927 75.09751 35966 ft 411 kts 265°
2026-05-01 10:50 41.38443 75.02135 35966 ft 413 kts 265°
2026-05-01 10:51 41.37948 74.94552 35966 ft 411 kts 265°
2026-05-01 10:51 41.37485 74.87009 35965 ft 412 kts 265°
2026-05-01 10:52 41.37030 74.79424 35965 ft 412 kts 265°
2026-05-01 10:52 41.36539 74.71815 35966 ft 411 kts 265°
2026-05-01 10:53 41.36044 74.64269 35967 ft 412 kts 265°
2026-05-01 10:53 41.35525 74.56664 35968 ft 412 kts 265°
2026-05-01 10:54 41.35009 74.49103 35974 ft 410 kts 265°
2026-05-01 10:54 41.34489 74.41541 35980 ft 411 kts 265°
2026-05-01 10:55 41.33968 74.33986 35985 ft 413 kts 265°
2026-05-01 10:55 41.33445 74.26421 35989 ft 412 kts 264°
2026-05-01 10:56 41.32872 74.18864 35991 ft 411 kts 264°
2026-05-01 10:56 41.32288 74.11294 35993 ft 412 kts 264°
2026-05-01 10:57 41.31726 74.03766 35993 ft 411 kts 264°
2026-05-01 10:57 41.31229 73.96163 35993 ft 412 kts 267°
2026-05-01 10:58 41.30988 73.88570 35993 ft 412 kts 267°
2026-05-01 10:58 41.30667 73.80991 35993 ft 411 kts 266°
2026-05-01 10:59 41.30320 73.73413 35993 ft 412 kts 267°
2026-05-01 10:59 41.29991 73.65853 35993 ft 412 kts 266°
2026-05-01 11:00 41.29645 73.58279 35992 ft 410 kts 266°
2026-05-01 11:00 41.29287 73.50703 35993 ft 412 kts 266°
2026-05-01 11:01 41.28937 73.43105 35993 ft 412 kts 267°
2026-05-01 11:01 41.28644 73.35542 35993 ft 411 kts 267°
2026-05-01 11:02 41.28324 73.27936 35993 ft 411 kts 266°
2026-05-01 11:02 41.27978 73.20373 35993 ft 411 kts 266°
2026-05-01 11:03 41.27618 73.12837 35992 ft 412 kts 266°
2026-05-01 11:03 41.27248 73.05244 35992 ft 412 kts 266°
2026-05-01 11:04 41.26878 72.97695 35992 ft 410 kts 266°
2026-05-01 11:04 41.26481 72.90131 35993 ft 411 kts 266°
2026-05-01 11:05 41.26111 72.82584 35993 ft 412 kts 266°
2026-05-01 11:05 41.25720 72.74983 35992 ft 411 kts 265°
2026-05-01 11:06 41.25272 72.67458 35994 ft 410 kts 265°
2026-05-01 11:06 41.24834 72.59895 35992 ft 411 kts 266°
2026-05-01 11:07 41.24202 72.48513 35993 ft 412 kts 266°
2026-05-01 11:07 41.23786 72.40971 35993 ft 411 kts 266°
2026-05-01 11:08 41.23367 72.33391 35993 ft 412 kts 265°
2026-05-01 11:09 41.22741 72.22029 35992 ft 412 kts 266°
2026-05-01 11:09 41.22353 72.14466 35993 ft 411 kts 265°
2026-05-01 11:10 41.21668 72.03133 35992 ft 411 kts 265°
2026-05-01 11:10 41.21217 71.95599 35993 ft 412 kts 265°
2026-05-01 11:11 41.20760 71.88026 35992 ft 413 kts 265°
2026-05-01 11:11 41.20306 71.80471 35992 ft 411 kts 265°
2026-05-01 11:12 41.19839 71.72903 35992 ft 411 kts 265°
2026-05-01 11:12 41.19381 71.65358 35993 ft 411 kts 265°
2026-05-01 11:13 41.18914 71.57834 35993 ft 411 kts 265°
2026-05-01 11:13 41.18440 71.50249 35991 ft 412 kts 265°
2026-05-01 11:14 41.17965 71.42712 35985 ft 412 kts 265°
2026-05-01 11:14 41.17474 71.35160 35982 ft 411 kts 265°
2026-05-01 11:15 41.16991 71.27579 35976 ft 412 kts 265°
2026-05-01 11:15 41.16546 71.20063 35972 ft 411 kts 265°
2026-05-01 11:16 41.16076 71.12495 35967 ft 411 kts 265°
2026-05-01 11:16 41.15588 71.04977 35993 ft 411 kts 265°
2026-05-01 11:17 41.15089 70.97451 35993 ft 409 kts 265°
2026-05-01 11:17 41.14587 70.89973 35993 ft 404 kts 266°
2026-05-01 11:18 41.14037 70.82640 35993 ft 401 kts 267°
2026-05-01 11:18 41.13525 70.75283 35993 ft 401 kts 267°
2026-05-01 11:19 41.13008 70.67950 35993 ft 402 kts 267°
2026-05-01 11:19 41.12483 70.60571 35993 ft 402 kts 267°
2026-05-01 11:20 41.11957 70.53213 35993 ft 402 kts 267°
2026-05-01 11:20 41.11424 70.45828 35993 ft 402 kts 267°
2026-05-01 11:21 41.10887 70.38451 35993 ft 403 kts 267°
2026-05-01 11:21 41.10348 70.31104 35993 ft 403 kts 266°
2026-05-01 11:22 41.09388 70.23783 35992 ft 407 kts 256°
2026-05-01 11:22 41.07193 70.16817 35993 ft 412 kts 248°
2026-05-01 11:23 41.04829 70.09917 35993 ft 412 kts 249°
2026-05-01 11:23 41.02477 70.03033 35992 ft 413 kts 249°
2026-05-01 11:24 41.00074 69.96101 35993 ft 414 kts 249°
2026-05-01 11:25 40.96471 69.85751 35993 ft 415 kts 248°
2026-05-01 11:25 40.92827 69.75372 36035 ft 414 kts 248°
2026-05-01 11:26 40.89202 69.65058 36093 ft 415 kts 248°
2026-05-01 11:27 40.86776 69.58149 36129 ft 414 kts 248°
2026-05-01 11:27 40.84353 69.51280 36127 ft 415 kts 248°
2026-05-01 11:28 40.81882 69.44374 36127 ft 415 kts 248°
2026-05-01 11:28 40.79432 69.37506 36128 ft 415 kts 248°
2026-05-01 11:29 40.75778 69.27230 36129 ft 415 kts 248°
2026-05-01 11:30 40.72060 69.16887 36128 ft 415 kts 248°
2026-05-01 11:30 40.69588 69.10072 36128 ft 415 kts 247°
2026-05-01 11:31 40.67119 69.03217 36127 ft 412 kts 247°
2026-05-01 11:31 40.64685 68.96445 36128 ft 408 kts 246°
2026-05-01 11:32 40.62271 68.89769 36128 ft 406 kts 246°
2026-05-01 11:32 40.59840 68.83063 36128 ft 405 kts 246°
2026-05-01 11:33 40.57444 68.76399 36127 ft 406 kts 248°
2026-05-01 11:33 40.55569 68.69412 36128 ft 406 kts 252°
2026-05-01 11:34 40.53720 68.62395 36128 ft 406 kts 251°
2026-05-01 11:34 40.51859 68.55469 36127 ft 406 kts 250°
2026-05-01 11:35 40.49497 68.48750 36128 ft 406 kts 245°
2026-05-01 11:35 40.47055 68.42052 36128 ft 406 kts 246°
2026-05-01 11:36 40.44649 68.35384 36128 ft 406 kts 246°
2026-05-01 11:36 40.42225 68.28700 36128 ft 407 kts 245°
2026-05-01 11:37 40.39802 68.22022 36128 ft 406 kts 245°
2026-05-01 11:37 40.37373 68.15345 36128 ft 406 kts 245°
2026-05-01 11:38 40.34945 68.08686 36128 ft 406 kts 245°
2026-05-01 11:38 40.32515 68.02033 36128 ft 406 kts 245°
2026-05-01 11:39 40.30107 67.95372 36128 ft 406 kts 246°
2026-05-01 11:39 40.27704 67.88731 36128 ft 406 kts 246°
2026-05-01 11:40 40.25275 67.82042 36128 ft 406 kts 246°
2026-05-01 11:40 40.22863 67.75414 36128 ft 406 kts 246°
2026-05-01 11:41 40.20445 67.68784 36128 ft 406 kts 246°
2026-05-01 11:41 40.18037 67.62140 36128 ft 405 kts 246°
2026-05-01 11:42 40.15690 67.55431 36128 ft 405 kts 246°
2026-05-01 11:42 40.13336 67.48762 36128 ft 406 kts 246°
2026-05-01 11:43 40.10977 67.42094 36128 ft 406 kts 246°
2026-05-01 11:43 40.08613 67.35429 36128 ft 406 kts 246°
2026-05-01 11:44 40.05048 67.25410 36128 ft 406 kts 246°
2026-05-01 11:44 40.02671 67.18749 36128 ft 406 kts 246°
2026-05-01 11:45 40.00304 67.12131 36128 ft 406 kts 246°
2026-05-01 11:45 39.97922 67.05486 36128 ft 406 kts 246°
2026-05-01 11:46 39.95521 66.98805 36128 ft 407 kts 246°
2026-05-01 11:46 39.93136 66.92182 36127 ft 407 kts 246°
2026-05-01 11:47 39.90729 66.85514 36128 ft 406 kts 246°
2026-05-01 11:47 39.88319 66.78854 36128 ft 406 kts 246°
2026-05-01 11:48 39.85912 66.72218 36128 ft 406 kts 246°
2026-05-01 11:48 39.83509 66.65608 36128 ft 406 kts 246°
2026-05-01 11:49 39.81090 66.58966 36128 ft 406 kts 246°
2026-05-01 11:49 39.78676 66.52354 36128 ft 406 kts 246°
2026-05-01 11:50 39.76254 66.45737 36128 ft 406 kts 246°
2026-05-01 11:50 39.73892 66.39141 36127 ft 406 kts 249°
2026-05-01 11:51 39.71967 66.32229 36128 ft 406 kts 251°
2026-05-01 11:51 39.70030 66.25402 36128 ft 406 kts 250°
2026-05-01 11:52 39.68081 66.18572 36128 ft 406 kts 250°
2026-05-01 11:52 39.66119 66.11708 36128 ft 405 kts 250°
2026-05-01 11:53 39.64150 66.04850 36128 ft 405 kts 250°
2026-05-01 11:53 39.62183 65.98019 36128 ft 406 kts 250°
2026-05-01 11:54 39.60222 65.91180 36128 ft 406 kts 250°
2026-05-01 11:54 39.58268 65.84374 36128 ft 406 kts 250°
2026-05-01 11:55 39.56301 65.77549 36128 ft 405 kts 250°
2026-05-01 11:55 39.54330 65.70723 36128 ft 406 kts 250°
2026-05-01 11:56 39.52348 65.63879 36128 ft 406 kts 250°
2026-05-01 11:56 39.50367 65.57057 36128 ft 405 kts 250°
2026-05-01 11:57 39.48727 65.51423 36128 ft 405 kts 250°
2026-05-01 11:57 39.46399 65.43449 36128 ft 405 kts 250°
2026-05-01 11:58 39.44417 65.36674 36128 ft 405 kts 250°
2026-05-01 11:59 39.41421 65.26472 36128 ft 405 kts 250°
2026-05-01 11:59 39.39420 65.19676 36128 ft 405 kts 250°
2026-05-01 12:00 39.36411 65.09489 36128 ft 405 kts 250°
2026-05-01 12:01 39.33406 64.99362 36127 ft 404 kts 250°
2026-05-01 12:01 39.31395 64.92617 36128 ft 403 kts 250°
2026-05-01 12:02 39.29362 64.85905 36063 ft 405 kts 250°
2026-05-01 12:02 39.28324 64.82461 35695 ft 407 kts 251°
2026-05-01 12:02 39.27334 64.79131 35696 ft 400 kts 251°
2026-05-01 12:03 39.25363 64.72440 35698 ft 401 kts 251°
2026-05-01 12:03 39.23378 64.65736 35695 ft 403 kts 251°
2026-05-01 12:04 39.21368 64.59001 35694 ft 404 kts 251°
2026-05-01 12:04 39.19343 64.52280 35696 ft 401 kts 251°
2026-05-01 12:05 39.17322 64.45579 35696 ft 403 kts 251°
2026-05-01 12:05 39.14213 64.35510 35695 ft 403 kts 251°
2026-05-01 12:06 39.12184 64.28793 35695 ft 402 kts 251°
2026-05-01 12:06 39.10153 64.22102 35696 ft 403 kts 250°
2026-05-01 12:07 39.08086 64.15440 35697 ft 402 kts 250°
2026-05-01 12:07 39.06085 64.08707 35695 ft 401 kts 252°
2026-05-01 12:08 39.04167 64.01973 35696 ft 403 kts 251°
2026-05-01 12:08 39.02212 63.95275 35695 ft 403 kts 251°
2026-05-01 12:09 39.00229 63.88569 35694 ft 399 kts 251°
2026-05-01 12:09 38.98257 63.81931 35696 ft 399 kts 251°
2026-05-01 12:10 38.95257 63.71980 35695 ft 398 kts 251°
2026-05-01 12:11 38.92346 63.62033 35695 ft 396 kts 253°
2026-05-01 12:11 38.91081 63.55233 35698 ft 393 kts 263°
2026-05-01 12:12 38.90316 63.48282 35696 ft 394 kts 263°
2026-05-01 12:12 38.89522 63.41371 35694 ft 392 kts 263°
2026-05-01 12:13 38.88701 63.34438 35698 ft 393 kts 263°
2026-05-01 12:13 38.87967 63.27519 35694 ft 392 kts 263°
2026-05-01 12:14 38.87257 63.20584 35696 ft 390 kts 263°
2026-05-01 12:14 38.86512 63.13735 35696 ft 391 kts 263°
2026-05-01 12:15 38.85743 63.06808 35750 ft 393 kts 263°
2026-05-01 12:15 38.84962 62.99920 35849 ft 392 kts 263°
2026-05-01 12:16 38.84119 62.92975 35951 ft 394 kts 262°
2026-05-01 12:16 38.83287 62.86046 36044 ft 396 kts 263°
2026-05-01 12:17 38.82465 62.79066 36095 ft 393 kts 263°
2026-05-01 12:17 38.81662 62.72155 36128 ft 395 kts 263°
2026-05-01 12:18 38.80844 62.65185 36128 ft 394 kts 263°
2026-05-01 12:18 38.80108 62.58250 36128 ft 394 kts 263°
2026-05-01 12:19 38.79329 62.51324 36127 ft 393 kts 263°
2026-05-01 12:19 38.78519 62.44449 36128 ft 394 kts 263°
2026-05-01 12:20 38.77713 62.37508 36128 ft 393 kts 263°
2026-05-01 12:20 38.76889 62.30590 36128 ft 394 kts 262°
2026-05-01 12:21 38.76008 62.23661 36128 ft 395 kts 262°
2026-05-01 12:21 38.75164 62.16742 36128 ft 392 kts 262°
2026-05-01 12:22 38.74307 62.09814 36129 ft 394 kts 262°
2026-05-01 12:22 38.73516 62.02920 36128 ft 395 kts 263°
2026-05-01 12:23 38.72709 61.95969 36128 ft 393 kts 263°
2026-05-01 12:23 38.71879 61.89055 36128 ft 394 kts 262°
2026-05-01 12:24 38.71039 61.82145 36128 ft 393 kts 262°
2026-05-01 12:24 38.70190 61.75270 36128 ft 394 kts 262°
2026-05-01 12:25 38.68888 61.64879 36127 ft 393 kts 262°
2026-05-01 12:26 38.68033 61.58006 36129 ft 393 kts 262°
2026-05-01 12:26 38.66743 61.47685 36128 ft 393 kts 262°
2026-05-01 12:27 38.65399 61.37375 36126 ft 394 kts 260°
2026-05-01 12:28 38.63289 61.27215 36129 ft 395 kts 257°
2026-05-01 12:29 38.61261 61.17000 36127 ft 395 kts 257°
2026-05-01 12:29 38.59189 61.06816 36128 ft 398 kts 257°
2026-05-01 12:30 38.57081 60.96580 36128 ft 400 kts 257°
2026-05-01 12:31 38.55671 60.89715 36129 ft 401 kts 257°
2026-05-01 12:31 38.54264 60.82842 36127 ft 401 kts 257°
2026-05-01 12:32 38.52846 60.75936 36128 ft 400 kts 257°
2026-05-01 12:32 38.50734 60.65674 36127 ft 400 kts 257°
2026-05-01 12:33 38.49316 60.58824 36129 ft 401 kts 257°
2026-05-01 12:33 38.47907 60.51975 36127 ft 400 kts 257°
2026-05-01 12:34 38.46489 60.45148 35976 ft 397 kts 257°
2026-05-01 12:34 38.45792 60.41779 35520 ft 391 kts 257°
2026-05-01 12:34 38.45113 60.38456 35078 ft 385 kts 258°
2026-05-01 12:35 38.44447 60.35181 34613 ft 380 kts 258°
2026-05-01 12:35 38.43778 60.31923 34147 ft 376 kts 257°
2026-05-01 12:35 38.43107 60.28708 33690 ft 377 kts 257°
2026-05-01 12:35 38.42422 60.25476 33218 ft 377 kts 256°
2026-05-01 12:36 38.41748 60.22300 32757 ft 372 kts 256°
2026-05-01 12:36 38.41083 60.19144 32299 ft 368 kts 256°
2026-05-01 12:36 38.40435 60.16048 31850 ft 363 kts 257°
2026-05-01 12:36 38.39786 60.12942 31397 ft 359 kts 256°
2026-05-01 12:37 38.39140 60.09878 30952 ft 361 kts 256°
2026-05-01 12:37 38.38490 60.06800 30499 ft 362 kts 256°
2026-05-01 12:37 38.37833 60.03696 30041 ft 358 kts 256°
2026-05-01 12:37 38.37193 60.00696 29598 ft 354 kts 256°
2026-05-01 12:38 38.36549 59.97706 29158 ft 349 kts 256°
2026-05-01 12:38 38.35914 59.94747 28722 ft 346 kts 256°
2026-05-01 12:38 38.35276 59.91753 28283 ft 351 kts 256°
2026-05-01 12:38 38.34641 59.88754 27831 ft 349 kts 256°
2026-05-01 12:39 38.34021 59.85835 27396 ft 344 kts 256°
2026-05-01 12:39 38.33394 59.82906 26961 ft 340 kts 256°
2026-05-01 12:39 38.32777 59.80035 26533 ft 336 kts 256°
2026-05-01 12:39 38.32157 59.77159 26109 ft 337 kts 256°
2026-05-01 12:40 38.31537 59.74272 25674 ft 338 kts 256°
2026-05-01 12:40 38.30933 59.71449 25249 ft 334 kts 256°
2026-05-01 12:40 38.30321 59.68602 24823 ft 330 kts 256°
2026-05-01 12:40 38.29717 59.65799 24403 ft 326 kts 255°
2026-05-01 12:41 38.29121 59.63037 23992 ft 327 kts 255°
2026-05-01 12:41 38.28518 59.60243 23568 ft 329 kts 255°
2026-05-01 12:41 38.27914 59.57449 23145 ft 325 kts 255°
2026-05-01 12:41 38.27323 59.54724 22734 ft 321 kts 255°
2026-05-01 12:42 38.26732 59.51999 22324 ft 317 kts 255°
2026-05-01 12:42 38.26145 59.49295 21920 ft 319 kts 255°
2026-05-01 12:42 38.25556 59.46584 21507 ft 320 kts 255°
2026-05-01 12:42 38.24969 59.43888 21097 ft 316 kts 255°
2026-05-01 12:43 38.24388 59.41224 20693 ft 312 kts 255°
2026-05-01 12:43 38.23809 59.38570 20292 ft 308 kts 255°
2026-05-01 12:43 38.23238 59.35959 19900 ft 312 kts 255°
2026-05-01 12:43 38.22673 59.33279 19393 ft 315 kts 257°
2026-05-01 12:44 38.22328 59.30540 18977 ft 311 kts 263°
2026-05-01 12:44 38.22107 59.27823 18532 ft 309 kts 263°
2026-05-01 12:44 38.21639 59.22458 17741 ft 302 kts 263°
2026-05-01 12:45 38.21204 59.17222 16976 ft 297 kts 263°
2026-05-01 12:45 38.20985 59.14576 16589 ft 302 kts 263°
2026-05-01 12:45 38.20770 59.11968 16200 ft 298 kts 263°
2026-05-01 12:46 38.20553 59.09345 15814 ft 295 kts 263°
2026-05-01 12:46 38.20340 59.06781 15437 ft 292 kts 263°
2026-05-01 12:46 38.20128 59.04224 15065 ft 293 kts 263°
2026-05-01 12:46 38.19914 59.01652 14682 ft 295 kts 263°
2026-05-01 12:47 38.19700 58.99078 14299 ft 292 kts 263°
2026-05-01 12:47 38.19487 58.96539 13924 ft 288 kts 263°
2026-05-01 12:47 38.19275 58.94010 13550 ft 285 kts 263°
2026-05-01 12:47 38.19066 58.91527 13185 ft 286 kts 263°
2026-05-01 12:48 38.18853 58.88998 12807 ft 289 kts 263°
2026-05-01 12:48 38.18641 58.86478 12431 ft 285 kts 263°
2026-05-01 12:48 38.18430 58.83997 12062 ft 282 kts 263°
2026-05-01 12:48 38.18219 58.81507 11692 ft 279 kts 263°
2026-05-01 12:49 38.18012 58.79079 11266 ft 281 kts 263°
2026-05-01 12:49 38.17799 58.76587 10835 ft 282 kts 262°
2026-05-01 12:49 38.17592 58.74157 10461 ft 280 kts 263°
2026-05-01 12:49 38.17383 58.71723 10196 ft 272 kts 262°
2026-05-01 12:50 38.17181 58.69367 10073 ft 261 kts 262°
2026-05-01 12:50 38.16986 58.67100 9794 ft 257 kts 262°
2026-05-01 12:50 38.16792 58.64869 9486 ft 254 kts 262°
2026-05-01 12:50 38.16600 58.62649 9182 ft 251 kts 262°
2026-05-01 12:51 38.16413 58.60488 8888 ft 248 kts 262°
2026-05-01 12:51 38.16219 58.58273 8593 ft 255 kts 262°
2026-05-01 12:51 38.15833 58.53835 7981 ft 250 kts 262°
2026-05-01 12:52 38.15642 58.51654 7685 ft 247 kts 262°
2026-05-01 12:52 38.15261 58.47314 7096 ft 250 kts 262°
2026-05-01 12:52 38.15069 58.45127 6794 ft 247 kts 262°
2026-05-01 12:53 38.14691 58.40849 6211 ft 243 kts 262°
2026-05-01 12:53 38.14497 58.38667 5919 ft 249 kts 262°
2026-05-01 12:53 38.14305 58.36500 5628 ft 245 kts 262°
2026-05-01 12:54 38.14118 58.34403 5325 ft 238 kts 261°
2026-05-01 12:54 38.13755 58.30339 4767 ft 226 kts 261°
2026-05-01 12:54 38.13580 58.28382 4501 ft 220 kts 261°
2026-05-01 12:55 38.13241 58.24612 3985 ft 209 kts 261°
2026-05-01 12:55 38.13079 58.22812 3761 ft 202 kts 261°
2026-05-01 12:55 38.12926 58.21116 3624 ft 188 kts 261°
2026-05-01 12:56 38.12711 58.19523 3408 ft 175 kts 246°
2026-05-01 12:56 38.11990 58.18312 3307 ft 176 kts 213°
2026-05-01 12:56 38.10870 58.17758 3156 ft 174 kts 185°
2026-05-01 12:56 38.09678 58.17903 3038 ft 174 kts 170°
2026-05-01 12:57 38.08470 58.18147 2885 ft 174 kts 171°
2026-05-01 12:57 38.06087 58.18655 2551 ft 173 kts 164°
2026-05-01 12:57 38.05154 58.19516 2504 ft 170 kts 119°
2026-05-01 12:58 38.05032 58.21011 2549 ft 178 kts 71°
2026-05-01 12:58 38.05866 58.22127 2509 ft 182 kts 20°
2026-05-01 12:58 38.07094 58.22039 2518 ft 183 kts 330°
2026-05-01 12:59 38.08821 58.19723 2483 ft 181 kts 287°
2026-05-01 12:59 38.08773 58.18235 2387 ft 166 kts 241°
2026-05-01 12:59 38.06860 58.16962 2470 ft 162 kts 185°
2026-05-01 13:00 38.05275 58.18637 2014 ft 160 kts 114°
2026-05-01 13:00 38.04836 58.19951 1942 ft 162 kts 113°
2026-05-01 13:01 38.04056 58.22630 1866 ft 161 kts 119°
2026-05-01 13:01 38.03489 58.23841 1903 ft 156 kts 122°
2026-05-01 13:01 38.02362 58.26195 1706 ft 154 kts 122°
2026-05-01 13:02 38.01811 58.27358 1559 ft 156 kts 121°
2026-05-01 13:07 37.96721 58.37338 699 ft 0 kts 127°